Terminal Aerodrome Forecast
Issued by NWS

Home | Current Version | Previous Version | Text Only | Print | Product List | Glossary On
Versions: 1 2 3 4 5 6 7 8 9 10 11 12 13 14 15 16 17 18 19 20 21 22 23 24 25 26 27 28 29 30 31 32 33 34 35 36 37 38 39 40 41 42 43 44 45 46 47 48 49 50
000
FTAK31 PANC 221906 AAA
TAFASN
TAF AMD
PASN 221906Z 2219/2318 05008KT P6SM VCSH OVC035
     FM222300 12010KT P6SM BKN025 BKN035
     FM231100 12020G35KT P6SM BKN025 BKN035
     FM231500 11025G40KT 3SM -SN OVC012=

USA.gov is the U.S. government's official web portal to all federal, state and local government web resources and services.